Lexington Weather

Lexington, Massachusetts, USA

35°F
4/16/2021 9:12am 
  • Lexington Conditions: Light snow, Mist, Overcast
  • Temperature: 34.5°F / 1.4°CColder 4.2°F than last hour.
  • Dew Point: 33.3°FDecreased 4.1°Fsince last hour.
  • Relative Humidity: 95
  • Wind: Wind from N N 2 mph, 10-min avg: 1 mph, gust: 3 mph
  • Barometer: 29.48 inFalling 0.04  inHg/hr Falling Slowly
  • Visibility: 2 miles
  • Snow Today: 0.3 in
  •   

Regional Weather Roundup
for Boston / Norton, MA

        
000
ASUS41 KBOX 151705
RWRBOX

REGIONAL WEATHER ROUNDUP
NATIONAL WEATHER SERVICE BOSTON/NORTON MA
100 PM EDT THU APR 15 2021

NOTE:  "FAIR" INDICATES FEW OR NO CLOUDS BELOW 12,000 FEET WITH NO 
SIGNIFICANT WEATHER AND/OR OBSTRUCTIONS TO VISIBILITY.

MAZALL-151800-
EASTERN MASSACHUSETTS
  
CITY           SKY/WX    TMP DP  RH WIND       PRES   REMARKS
BOSTON         CLOUDY    50  36  58 E20       29.84F                  
BEVERLY        NOT AVBL                                               
LAWRENCE       CLOUDY    51  30  44 E9        29.86F                  
BEDFORD        CLOUDY    50  35  56 E15       29.82F                  
BLUE HILL        N/A     50  30  46 SE13G21   29.80F                  
NORWOOD        CLOUDY    56  31  38 E8        29.82F                  
MARSHFIELD     CLOUDY    48  39  71 SE9G20    29.85F                  
PLYMOUTH       CLOUDY    52  31  44 E12       29.83F                  
TAUNTON          N/A     53  27  36 E13       29.82                   
NEW BEDFORD    CLOUDY    50  32  50 SE14G20   29.83F                  
$$

MAZALL-151800-
CAPE COD AND THE ISLANDS
  
CITY           SKY/WX    TMP DP  RH WIND       PRES   REMARKS
FALMOUTH       PTSUNNY   48  34  57 SE12G21   29.85F                  
HYANNIS        CLOUDY    48  37  65 SE12      29.83F                  
CHATHAM        PTSUNNY   46  36  68 E12       29.88F                  
PROVINCETOWN   PTSUNNY   49  37  63 SE12      29.87S                  
NANTUCKET      CLOUDY    47  38  71 E18       29.85F                  
MARTHAS VNYRD  CLOUDY    49  35  58 E14       29.83F                  
$$
 
MAZALL-151800-
CENTRAL AND WESTERN MASSACHUSETTS
  
CITY           SKY/WX    TMP DP  RH WIND       PRES   REMARKS
WORCESTER      LGT RAIN  46  40  79 E8        29.79F                  
FITCHBURG      LGT RAIN  51  40  65 S8        29.81F                  
ORANGE         RAIN      47  44  90 SE7       29.79F FOG              
SPRINGFIELD    NOT AVBL                                               
WESTFIELD      LGT RAIN  48  47  96 CALM      29.76F FOG              
NORTH ADAMS    LGT RAIN  49  47  93 E9        29.73F FOG              
PITTSFIELD     LGT RAIN  47  44  90 SE9       29.71F                  
$$
 
RIZALL-151800-
RHODE ISLAND
  
CITY           SKY/WX    TMP DP  RH WIND       PRES   REMARKS
PROVIDENCE     CLOUDY    50  34  54 SE10      29.82F                  
NEWPORT        CLOUDY    47  34  60 E9G21     29.80F                  
BLOCK ISLAND   CLOUDY    45  38  76 SE16G23   29.79F                  
SMITHFIELD     LGT RAIN  49  36  61 SE7       29.81F                  
WESTERLY       LGT RAIN  45  38  76 E13G20    29.79F                  
$$
 
CTZALL-151800-
CONNECTICUT
  
CITY           SKY/WX    TMP DP  RH WIND       PRES   REMARKS
BRADLEY INTL   DRIZZLE   49  47  93 SE6       29.76F FOG              
HARTFORD       LGT RAIN  50  47  89 SE7       29.76F FOG              
BRIDGEPORT     LGT RAIN  50  48  93 E10       29.73F FOG              
DANBURY        RAIN      52  48  86 SE7       29.73F FOG              
GROTON         LGT RAIN  46  42  86 E15G23    29.78F FOG              
NEW HAVEN      RAIN      51  50  96 E9        29.75F FOG              
CHESTER        LGT RAIN  46  46 100 SE9       29.76F                  
MERIDEN        LGT RAIN  51  48  89 SE5       29.75F                  
WILLIMANTIC    LGT RAIN  48  46  93 VRB7      29.78F FOG              
OXFORD         LGT RAIN  48  48 100 SE9       29.73F FOG              
$$

MEZ002-015-021-024-NHZ003-005-008-011-012-014-VTZ005-008-151800-
NORTHERN NEW ENGLAND
  
CITY           SKY/WX    TMP DP  RH WIND       PRES   REMARKS
PORTLAND ME    PTSUNNY   51  32  48 SE15      29.88F                  
BANGOR ME      MOSUNNY   59  34  39 SW5       29.87F                  
CONCORD NH     CLOUDY    51  29  42 SE9       29.82F                  
MANCHESTER NH  LGT RAIN  51  27  39 SE15      29.82F                  
NASHUA NH      LGT RAIN  51  30  44 E13       29.83F                  
PORTSMOUTH NH  CLOUDY    50  34  53 E14       29.88F                  
JAFFREY NH     LGT RAIN  47  40  76 VRB5      29.79F                  
KEENE NH       LGT RAIN  47  43  86 S3        29.79F                  
BURLINGTON VT  RAIN      49  44  83 SE14      29.72F                  
MT. WASHINGTON CLOUDY    28  23  80 SE36        N/A  VSB 1/4 WCI  12  
$$

NYZ052-076-151800-
EASTERN NEW YORK
  
CITY           SKY/WX    TMP DP  RH WIND       PRES   REMARKS
ALBANY         CLOUDY    51  45  79 SE16G23   29.68F                  
NEW YORK CITY  RAIN      53  50  89 S10       29.71F FOG              
$$
 
ANZALL-151800-
MARINE OBSERVATIONS
  
STATION/POSITION TIME  TEMP    WIND        PRES    VSBY  WAVE
                       AIR SEA DIR/SP/G                  HT/PER
                 (UTC) (F)     (DEG/KT/KT) (MB)    (MI)  (FT/S)
BOSTON BUOY      1640   45 45  120/ 16/ 19 1011.6F
BUZZARDS BAY     1600          120/ 17/ 18 1011.3F
NANTUCKET SOUND  1640      47                N/A
MASS BAY-STELLWA 1604   45     120/ 16/ 19 1010.5F  1 7/8  4/11
ISLE OF SHOALS   1600   45     110/ 14/ 15 1011.3F
S OF BLOCK IS    1626      44                N/A           4/11
$$

......................KEY.........................
  SKY/WX - SKY CONDITION/PRESENT WEATHER
  TMP    - TEMPERATURE IN FAHRENHEIT
  DWPT   - DEWPOINT IN FAHRENHEIT
  RH     - RELATIVE HUMIDITY IN PERCENT
  WIND   - DIRECTION AND SPEED IN MPH
  PRES   - MEAN SEA LEVEL PRESSURE IN INCHES OF HG
  WCI    - WIND CHILL INDEX
  VSB    - VISIBILITY IN MILES
  HX     - HEAT INDEX
  TC     - TEMPERATURE IN CELSIUS
  VRB    - VARIABLE WIND DIRECTION
  N/A    - NOT AVAILABLE
  
      

Other recent Regional Weather Roundups

Fri Apr 16, 9:04am

Fri Apr 16, 8:04am

Fri Apr 16, 7:04am

Fri Apr 16, 6:04am

Fri Apr 16, 5:04am

Fri Apr 16, 4:04am

Fri Apr 16, 3:04am

Fri Apr 16, 2:04am

Fri Apr 16, 1:04am

Fri Apr 16, 12:04am

Thu Apr 15, 11:05pm

Thu Apr 15, 10:04pm

Thu Apr 15, 9:04pm

Thu Apr 15, 8:04pm

Thu Apr 15, 7:05pm

Thu Apr 15, 6:04pm

Thu Apr 15, 5:05pm

Thu Apr 15, 4:04pm

Thu Apr 15, 3:05pm

Thu Apr 15, 2:04pm

Thu Apr 15, 12:04pm

Thu Apr 15, 11:04am

Thu Apr 15, 10:05am

Thu Apr 15, 9:04am

Thu Apr 15, 8:04am

Thu Apr 15, 7:04am

Thu Apr 15, 6:04am

Thu Apr 15, 5:04am

Thu Apr 15, 4:04am

Thu Apr 15, 3:04am

Thu Apr 15, 2:04am

Thu Apr 15, 1:04am

Thu Apr 15, 12:04am

Wed Apr 14, 11:04pm

Wed Apr 14, 10:04pm

Wed Apr 14, 9:04pm

Wed Apr 14, 8:04pm

Wed Apr 14, 7:04pm

Wed Apr 14, 6:04pm

Wed Apr 14, 5:05pm

Wed Apr 14, 4:04pm

Wed Apr 14, 3:05pm

Wed Apr 14, 2:04pm

Wed Apr 14, 1:05pm

Wed Apr 14, 12:04pm

Wed Apr 14, 11:04am

Wed Apr 14, 10:04am

Wed Apr 14, 9:04am

Wed Apr 14, 8:04am

Wed Apr 14, 7:04am

Wed Apr 14, 6:04am

Wed Apr 14, 5:04am

Wed Apr 14, 4:04am

Wed Apr 14, 3:04am

Wed Apr 14, 2:04am

Wed Apr 14, 1:04am

Wed Apr 14, 12:04am

Tue Apr 13, 11:04pm

Tue Apr 13, 10:05pm

Tue Apr 13, 9:05pm

Tue Apr 13, 8:05pm

Tue Apr 13, 7:04pm

Tue Apr 13, 6:04pm

Tue Apr 13, 5:05pm

Tue Apr 13, 4:04pm

Tue Apr 13, 3:04pm

Tue Apr 13, 2:05pm

Tue Apr 13, 1:04pm

Tue Apr 13, 12:05pm

Tue Apr 13, 11:05am

Tue Apr 13, 10:04am

Tue Apr 13, 9:04am

Tue Apr 13, 8:04am

Tue Apr 13, 7:04am

Tue Apr 13, 6:04am

Tue Apr 13, 5:04am

Tue Apr 13, 4:04am

Tue Apr 13, 3:04am

Tue Apr 13, 2:04am

Tue Apr 13, 1:04am

Tue Apr 13, 12:05am

Mon Apr 12, 11:04pm

Mon Apr 12, 10:04pm

Mon Apr 12, 9:04pm

Mon Apr 12, 8:04pm

Mon Apr 12, 7:05pm

Mon Apr 12, 6:04pm

Mon Apr 12, 5:04pm

Mon Apr 12, 4:04pm

Mon Apr 12, 3:05pm

Mon Apr 12, 2:04pm

Mon Apr 12, 1:05pm

Mon Apr 12, 12:04pm

Mon Apr 12, 11:04am

Mon Apr 12, 10:04am

Mon Apr 12, 9:04am

Mon Apr 12, 8:04am

Mon Apr 12, 7:04am

Mon Apr 12, 6:04am

Mon Apr 12, 5:04am

Mon Apr 12, 4:04am

Mon Apr 12, 3:04am

Mon Apr 12, 2:04am

Mon Apr 12, 1:05am

Mon Apr 12, 12:04am

Sun Apr 11, 11:04pm

Sun Apr 11, 10:04pm

Sun Apr 11, 9:04pm

Sun Apr 11, 8:04pm

Sun Apr 11, 7:04pm

Sun Apr 11, 6:05pm

Sun Apr 11, 5:05pm

Sun Apr 11, 4:04pm

Sun Apr 11, 3:05pm

Sun Apr 11, 2:05pm

Sun Apr 11, 1:05pm

Sun Apr 11, 12:04pm

Sun Apr 11, 11:05am

Sun Apr 11, 10:05am

Sun Apr 11, 9:04am

Sun Apr 11, 8:04am

Sun Apr 11, 7:04am

Sun Apr 11, 6:04am

Sun Apr 11, 5:04am

Sun Apr 11, 4:04am

Sun Apr 11, 3:04am

Sun Apr 11, 2:04am

Sun Apr 11, 1:05am

Sun Apr 11, 12:04am

Sat Apr 10, 11:05pm

Sat Apr 10, 10:04pm

Sat Apr 10, 9:04pm

Sat Apr 10, 8:04pm

Sat Apr 10, 7:05pm

Sat Apr 10, 6:04pm

Sat Apr 10, 5:04pm

Sat Apr 10, 4:04pm

Sat Apr 10, 3:04pm

Sat Apr 10, 2:05pm

Sat Apr 10, 1:04pm

Sat Apr 10, 12:04pm

Sat Apr 10, 11:04am

Sat Apr 10, 10:04am

Sat Apr 10, 9:04am

Sat Apr 10, 8:04am

Sat Apr 10, 7:04am

Sat Apr 10, 6:04am

Sat Apr 10, 5:04am

Sat Apr 10, 4:04am

Sat Apr 10, 3:04am

Sat Apr 10, 2:04am

Sat Apr 10, 1:05am

Sat Apr 10, 12:04am

Fri Apr 9, 11:04pm

Fri Apr 9, 10:05pm

Fri Apr 9, 9:04pm

Fri Apr 9, 8:05pm

Fri Apr 9, 7:05pm

Fri Apr 9, 6:04pm

Fri Apr 9, 5:04pm

Fri Apr 9, 4:05pm

Fri Apr 9, 3:05pm

Fri Apr 9, 2:04pm

Fri Apr 9, 1:04pm

Fri Apr 9, 12:04pm

Fri Apr 9, 11:05am

Fri Apr 9, 10:04am

Fri Apr 9, 9:04am

Meta data:

ID: 8f99b611-0134-4cd4-870a-b11dbeb42d93
Link: https://api.weather.gov/products/8f99b611-0134-4cd4-870a-b11dbeb42d93